Other Public Products
Issued by NWS Grand Forks, ND

Home | Current Version | Previous Version | Graphics & Text | Print | Product List | Glossary On
Versions: 1 2 3 4 5 6 7 8 9 10 11 12 13 14 15 16 17 18 19 20 21 22 23 24 25 26 27 28 29 30 31 32 33 34 35 36 37 38 39 40 41 42 43 44 45 46 47 48 49 50
000
FPUS83 KFGF 311310
OPUFGF
PRAIRIE TO PINES WEATHER ROUNDUP
NATIONAL WEATHER SERVICE EASTERN NORTH DAKOTA/GRAND FORKS ND
700 AM CST SAT JAN 31 2015

 **SATELLITE DATA USED TO AUGMENT SKY COVER AT AUTOMATED STATIONS**
 *****  WEATHER ACROSS EASTERN NORTH DAKOTA  *****

CITY           SKY/WX    TMP DP  RH WIND       PRES   REMARKS
GRAND FORKS    CLOUDY     6  -2  69 N15       30.39R WCI -12
GRAND FORKS AF CLOUDY     6  -1  74 NE16      30.38S WCI -13
GRAND CITY NWS   N/A      1 N/A N/A N18         N/A  WCI -19
BUXTON         NOT AVBL
DEVILS LAKE    MOCLDY     7  -6  56 NE16      30.33R WCI -11
FARGO          CLOUDY    13   5  70 N22       30.31R WCI  -6
WAHPETON ARPT  CLOUDY    18  12  79 N18       30.25F WCI   2
$$

 *****  WEATHER ACROSS CENTRAL AND WESTERN NORTH DAKOTA  *****

CITY           SKY/WX    TMP DP  RH WIND       PRES   REMARKS
JAMESTOWN      FLURRIES  15  10  80 NE17      30.27R WCI  -1
BISMARCK       CLOUDY    20  17  88 E16       30.23R WCI   6
MINOT          CLOUDY     9   0  67 NE14      30.30R WCI  -7
MINOT AFB      CLOUDY     9   2  75 E14       30.31R WCI  -8
GARRISON         N/A     13  10  88 E14G23    30.24R WCI  -2
WILLISTON      CLOUDY    20  16  84 E17       30.21R WCI   5
DICKINSON      FOG       21  19  92 E16       30.10R VSB 3/4 WCI   7
HETTINGER      FOG       23  22  96 E14       30.09S VSB 1/2 WCI  11
$$

 *****  OTHER OBSERVATIONS NORTHEAST NORTH DAKOTA  *****

CITY           SKY/WX    TMP DP  RH WIND       PRES   REMARKS
WALHALLA         N/A      1   0  92 N21       30.44R WCI -20
LANGDON        NOT AVBL
CAVALIER       FAIR       1  -4  78 N21G28    30.43R WCI -20
GRAFTON        NOT AVBL
CANDO          CLOUDY     3  -2  78 NE15G21   30.37R WCI -15
FORT TOTTEN      N/A      5  -2  72 N6        29.95  WCI  -6
ROLLA          CLOUDY     1  -4  78 N17       30.35R WCI -19
RUGBY          LGT SNOW   5   0  78 NE18      30.35S WCI -15
 ***** THE ABOVE OBSERVATIONS ARE NON NWS ARE NOT QUALITY
        CONTROLLED AND MAY MIS-REPORT RAIN FOR SNOW...
$$

 *****  OTHER OBSERVATIONS SOUTHEAST NORTH DAKOTA *****

CITY           SKY/WX    TMP DP  RH WIND       PRES   REMARKS
COOPERSTOWN    NOT AVBL
VALLEY CITY    FLURRIES   9   5  85 NE17G23   30.28S WCI -10
OAKES            N/A     16  16 100 N22       30.24S WCI  -2
GWINNER        CLOUDY    19  16  86 N20       30.26R WCI   4
SHEYENNE NWR     N/A     14   8  76 N12       29.95  WCI   0
BUFFALO        NOT AVBL
WYNDMERE         N/A     16  12  86 VRB14       N/A  WCI   1
 ***** THE ABOVE OBSERVATIONS ARE NON NWS ARE NOT QUALITY
       CONTROLLED AND MAY MIS-REPORT RAIN FOR SNOW...
$$

  *****  WEATHER ACROSS NORTHERN MINNESOTA  *****

CITY           SKY/WX    TMP DP  RH WIND       PRES   REMARKS
FLAG ISLAND    PTCLDY    -2  -8  78 N15       30.32R WCI -22
WARROAD        MOCLDY     0  -6  78 NW9       30.33R WCI -16
ROSEAU         MOCLDY     1  -6  71 N13       30.34R WCI -16
HALLOCK        MOCLDY     1  -6  71 N15       30.40R WCI -18
THF RVR FALLS  MOCLDY     3  -2  78 N12       30.33R WCI -13
HALSTAD          N/A      8   1  73 N18         N/A  WCI -10
FOSSTON        CLEAR      7   1  78 N16       30.29R WCI -11
BAUDETTE       PTCLDY     0  -6  76 NW14      30.27R WCI -19
WASKISH        MOCLDY     3   0  85 N7        30.27R WCI  -9
CROOKSTON      PTCLDY     7   0  72 N14G20    30.37R WCI -10
$$
  *****  WEATHER ACROSS CENTRAL AND WEST MINNESOTA  *****

CITY           SKY/WX    TMP DP  RH WIND       PRES   REMARKS
BEMIDJI        PTCLDY    11   6  77 N12G17    30.23R WCI  -3
PARK RAPIDS    CLOUDY    19  16  88 N10       30.19R WCI   7
WADENA         CLOUDY    19  18  93 N9        30.18F WCI   9
DETROIT LAKES  CLOUDY    18  14  86 N6        30.22F WCI   9
MOORHEAD       MIX PCPN  14  10  85 N23       30.30R WCI  -5
FERGUS FALLS   CLOUDY    18  14  86 N10G17    30.26R WCI   6
ELBOW LAKE     CLOUDY    19  17  93 N17       30.20S WCI   3
MORRIS MN      CLOUDY    21  19  93 N16       30.19R FOG     WCI   7
STAPLES        CLOUDY    21  18  86 N9        30.19R WCI  11
WHEATON        CLOUDY    16  12  86 N15G25    30.25R WCI   1
$$
  *****  WEATHER ELSEWHERE ACROSS MINNESOTA  *****

CITY           SKY/WX    TMP DP  RH WIND       PRES   REMARKS
DULUTH         CLOUDY    20  13  74 NW9       30.14R WCI   9
INTRNTL FALLS  PTCLDY     6   0  76 NW9       30.23R WCI  -8
ELY            LGT SNOW  12   9  85 NW9G17    30.15R WCI   0
CLOQUET        CLOUDY    21  16  79 NW9G17    30.15R WCI  11
BRAINERD       CLOUDY    21  17  84 N12       30.19R WCI   9
HIBBING        CLOUDY    18  10  71 N13       30.17R WCI   5
ALEXANDRIA     CLOUDY    21  18  88 N15       30.18R WCI   8
SAINT CLOUD    CLOUDY    25  21  85 N12       30.16R WCI  14
MINNEAPOLIS    MOCLDY    20  17  88 NW5       30.15R WCI  13
$$

  *****  WEATHER ACROSS SOUTH DAKOTA  *****

CITY           SKY/WX    TMP DP  RH WIND       PRES   REMARKS
SIOUX FALLS    MOCLDY    26  23  88 NE12      30.11S WCI  16
BROOKINGS      NOT AVBL
WATERTOWN      CLOUDY    21  18  88 NE14      30.13R WCI   8
HURON          CLOUDY    25  24  96 NE14      30.14R FOG     WCI  13
SISSETON         N/A     18  16  92 NE22      30.22R WCI   1
ABERDEEN       CLOUDY    23  19  85 NE17      30.20R WCI   9
MITCHELL       MOCLDY    26  24  92 NE13      30.12R WCI  15
PIERRE         CLOUDY    24  23  96 NE17      30.11R FOG     WCI  11
MOBRIDGE       CLOUDY    25  22  88 E13       30.14R WCI  14
RAPID CITY     CLOUDY    29  22  75 CALM      30.02R
$$

  *****  SOME WEATHER IN NEARBY STATES *****

CITY           SKY/WX    TMP DP  RH WIND       PRES   REMARKS
GLASGOW MT     CLOUDY    22  19  89 E24G35    30.08S FOG     WCI   5
GREAT FALLS MT CLOUDY    27  24  89 NW14      30.06R WCI  16
CHEYENNE WY    CLOUDY    30  24  78 N7        29.89F WCI  23
SCOTTSBLUFF NE CLOUDY    31  28  89 NW5       29.94F
OMAHA NE       CLOUDY    36  31  82 SE10      30.17F
DES MOINES IA  CLOUDY    36  28  73 SW10      30.20S
DAVENPORT IA   MOCLDY    28  19  69 SW12      30.23R WCI  18
CHICAGO IL     MOCLDY    24  18  77 SW8       30.23F WCI  15
EAU CLAIRE WI  CLOUDY    23  14  68 CALM      30.15R
LA CROSSE WI   CLOUDY    24  16  71 S6        30.17R WCI  17
$$

  *****  SOME NATIONAL WEATHER *****

CITY           SKY/WX    TMP DP  RH WIND       PRES   REMARKS
LA GUARDIA NY  PTCLDY    14   0  53 NW23G36   30.11R WCI  -5
RALEIGH NC     PTCLDY    26   8  46 CALM      30.35R
ATLANTA GA     MOCLDY    30  20  66 NW6       30.34R WCI  24
NEW ORLEANS LA PTCLDY    45  37  73 E6        30.30R
OKLAHOMA CITY  LGT RAIN  42  34  73 SE9       30.17F
ALBUQUERQUE NM LGT RAIN  33  33 100 NW5       29.93R VSB 3/4
SALT LAKE CITY MOCLDY    37  32  82 NW7       29.96S
LOS ANGELES CA CLOUDY    57  56  96 CALM      29.84S
BOISE ID       CLEAR     25  22  88 SE5       30.12S WCI  19
SEATTLE WA     FOG       39  37  92 NE3       30.26R VSB 1/8
$$

*** WEATHER ACROSS MANITOBA...SASKATCHEWAN AND ONTARIO ***
                ***ONTARIO***

CITY           SKY/WX    TMP DP  RH WIND       PRES   REMARKS
GERALDTON      LGT SNOW   5  -2  72 NW12G20   30.06R DRFTSNOWWCI -11
THUNDER BAY    PTCLDY    12   7  79 NW10      30.16R WCI  -1
SIOUX LOOKOUT  PTCLDY    -4 -11  71 N10G17    30.23R WCI -21
TORONTO        CLOUDY    10   3  72 VRB2      30.31S
BIG TROUT LK   CLEAR    -27 -35  68 NW12      30.29R WCI -51
PICKLE LAKE    CRYSTALS -17 -26  63 NW7G17    30.23R WCI -33
DRYDEN         FLURRIES  -2  -6  84 NW5       30.24R WCI -12
KENORA         CRYSTALS  -4  -8  84 N8        30.28R WCI -19
$$
                *** MANITOBA***

CITY           SKY/WX    TMP DP  RH WIND       PRES   REMARKS
BRANDON        MOCLDY    -4 -11  71 E10       30.45R WCI -21
DAUPHIN        CLEAR    -13 -18  77 NE6       30.56R WCI -27
ISLAND LAKE    CLEAR    -26 -33  68 W10       30.45R WCI -48
PILOT MOUND      N/A     -2  -8  78 NE10G17     N/A  WCI -19
THE PAS        CLEAR    -24 -29  76 NW9       30.63R WCI -45
THOMPSON       CRYSTALS -27 -35  68 W10       30.51R WCI -50
WINNIPEG       PTCLDY    -8 -15  71 N16       30.48R WCI -30
LYNN LAKE      CLEAR    -27 -35  68 NW10      30.51S WCI -50
CHURCHILL      BLWGSNOW -24 -31  69 NW28G33   30.32S VSB 1   WCI -57
GILLAM         CLEAR    -29 -36  68 W10G17    30.41R WCI -53
$$
                ***SASKATCHEWAN***

CITY           SKY/WX    TMP DP  RH WIND       PRES   REMARKS
ESTEVAN        LGT SNOW   7   3  85 E12G18    30.30S DRFTSNOWWCI  -9
KINDERSLEY     CRYSTALS   1  -4  78 NE24      30.39R WCI -22
LLOYDMINSTER     N/A     -9 -15  77 NE9       30.51R WCI -27
PRINCE ALBERT  PTCLDY   -18 -24  76 NE2       30.60R
REGINA         MOCLDY     7   0  72 NE15      30.36S WCI -11



USA.gov is the U.S. government's official web portal to all federal, state and local government web resources and services.